Location: Derby
(52.9213°N, 1.4761°W)
Time: 16:44:38
(UTC+01:00)

Vanguard 1 - Pass Details

Date: 22 May 2025
Orbit: 649 x 3822 km, 34.3° (Epoch: 14 June)

Event Time Altitude Azimuth Distance (km) Brightness Sun altitude
Rises 16:35:35 0° 212° (SSW) 7,879 15.3 38.1°
Reaches altitude 10° 16:42:48 10° 202° (SSW) 6,605 14.8 37.1°
Maximum altitude 16:56:56 24° 158° (SSE) 4,552 13.6 35.0°
Drops below altitude 10° 17:07:03 10° 111° (ESE) 4,654 13.2 33.5°
Sets 17:10:55 0° 98° (E) 5,206 13.3 33.0°
